User: anonymous   Login
Location: Unspecified
(0.0000°N, 0.0000°E)
Time: 09:27:47
(UTC+00:00)
Language:

CANX 3B (BRITE-ASRA) - Orbit

View from above orbital plane
View from above orbital plane
View from above satellite
View from above satellite

Ground track
Ground track

The orbit data is extracted from the following two-line orbital elements,

1 39091U 13009F   15125.12476573  .00000124  00000-0  59194-4 0  9993
2 39091 098.6061 323.8569 0011709 082.7444 277.5072 14.34872276114490
Epoch (UTC): 05 May 2015 02:59:39
Eccentricity: 0.0011709
inclination: 98.6061°
perigee height: 767 km
apogee height: 784 km
right ascension of ascending node: 323.8569°
argument of perigee: 82.7444°
revolutions per day: 14.34872276
mean anomaly at epoch: 277.5072°
orbit number at epoch: 11449

The dashed part of the orbit path shows where the satellite is in the earth's shadow,  

DLR